Location: Ferris
(32.5340°N, 96.6656°W)
Time: 23:06:59
(UTC+00:00)

Cosmos 1354 Rocket - Pass Details

Date: 26 May 2026
Orbit: 761 x 778 km, 74.0° (Epoch: 7 June)

Event Time Altitude Azimuth Distance (km) Brightness Sun altitude
Rises 02:01:13 0° 359° (N) 3,228 7.7 -7.5°
Reaches altitude 10° 02:04:07 10° 14° (NNE) 2,297 6.7 -8.0°
Maximum altitude 02:08:07 22° 65° (ENE) 1,613 5.4 -8.8°
Enters shadow 02:11:45 11° 113° (ESE) 2,184 5.7 -9.4°
